WP3OF-3 Weather Reports


time (UTC)temp
F
wind
direction
speed
knots
gust
knots
rain 1hr
in
rain 24hr
in
rain mn
in
humidity
%
barometer
mb
20260505081021 68 150 0.0 0.0 0.00 0.00 0.00 94 1018.6
20260505080517 68 173 0.0 0.0 0.00 0.00 0.00 94 1018.5
20260505080014 68 141 0.0 0.0 0.00 0.00 0.00 94 1018.3
20260505075509 68 145 0.0 0.0 0.00 0.00 0.00 94 1018.4
20260505075006 69 168 0.0 0.0 0.00 0.00 0.00 94 1018.5
20260505074504 69 134 0.0 0.0 0.00 0.00 0.00 94 1018.4
20260505074001 69 179 0.0 0.0 0.00 0.00 0.00 94 1018.5
20260505073458 69 135 0.0 0.0 0.00 0.00 0.00 94 1018.3
20260505072955 69 190 0.0 0.0 0.00 0.00 0.00 94 1018.4
20260505072451 69 148 0.0 0.0 0.00 0.00 0.00 94 1018.4
20260505071948 69 139 0.0 0.0 0.00 0.00 0.00 94 1018.4
20260505071443 69 154 0.0 0.0 0.00 0.00 0.00 94 1018.5
20260505070942 69 91 0.0 0.0 0.00 0.00 0.00 94 1018.4
20260505070438 69 207 0.0 0.0 0.00 0.00 0.00 94 1018.4
20260505065934 69 113 0.0 0.0 0.00 0.00 0.00 94 1018.4
20260505065431 69 152 0.0 0.0 0.00 0.00 0.00 94 1018.5
20260505064927 69 183 0.0 0.0 0.00 0.00 0.00 94 1018.4
20260505064425 69 112 0.0 0.0 0.00 0.00 0.00 94 1018.4
20260505063923 69 154 0.0 0.0 0.00 0.00 0.00 94 1018.4
20260505063419 69 157 0.0 0.0 0.00 0.00 0.00 94 1018.5
20260505062915 69 126 0.0 0.0 0.00 0.00 0.00 94 1018.6
20260505062413 69 152 0.0 0.0 0.00 0.00 0.00 94 1018.6
20260505061909 69 152 0.0 0.0 0.00 0.00 0.00 94 1018.5
20260505061408 69 171 0.0 0.0 0.00 0.00 0.00 94 1018.4
20260505060905 69 163 0.0 0.0 0.00 0.00 0.00 94 1018.8
20260505060401 69 142 0.0 0.0 0.00 0.00 0.00 94 1018.7
20260505055858 69 168 0.0 0.0 0.00 0.00 0.00 94 1018.7
20260505055354 69 186 0.0 0.0 0.00 0.00 0.00 93 1018.8
20260505054851 70 156 0.0 0.0 0.00 0.00 0.00 93 1018.8
20260505054348 70 155 0.0 0.0 0.00 0.00 0.00 93 1018.8
20260505053847 70 155 0.0 0.0 0.00 0.00 0.00 93 1018.9
20260505053343 70 164 0.0 0.0 0.00 0.00 0.00 93 1019.1
20260505052840 70 158 0.0 0.0 0.00 0.00 0.00 93 1019.1
20260505052337 70 152 0.0 0.0 0.00 0.00 0.00 93 1019.4
20260505051834 70 181 0.0 0.0 0.00 0.00 0.00 93 1019.1
20260505051331 70 157 0.0 0.0 0.00 0.00 0.00 93 1019.2
20260505050829 70 176 0.0 0.0 0.00 0.00 0.00 93 1019.4
20260505050328 70 152 0.0 0.0 0.00 0.00 0.00 93 1019.3
20260505041757 71 181 0.0 0.0 0.00 0.00 0.00 93 1019.7
20260505041255 71 171 0.0 0.0 0.00 0.00 0.00 92 1019.6
20260505040752 71 188 0.0 0.0 0.00 0.00 0.00 92 1019.8
20260505040249 71 146 0.0 0.0 0.00 0.00 0.00 92 1019.8
20260505035746 71 173 0.0 0.0 0.00 0.00 0.00 92 1019.9
20260505035242 71 179 0.0 0.0 0.00 0.00 0.00 92 1020.0
20260505034739 71 155 0.0 0.0 0.00 0.00 0.00 92 1019.7
20260505034236 71 173 0.0 0.0 0.00 0.00 0.00 92 1019.9
20260505033733 71 170 0.0 0.0 0.00 0.00 0.00 92 1019.8
20260505033230 71 159 0.0 0.0 0.00 0.00 0.00 92 1019.9
20260505032729 72 190 0.0 0.0 0.00 0.00 0.00 92 1020.0
20260505032224 72 190 0.0 0.0 0.00 0.00 0.00 92 1020.1
20260505031722 72 182 0.0 0.0 0.00 0.00 0.00 92 1020.1
20260505031218 72 159 0.0 0.0 0.00 0.00 0.00 92 1020.1
20260505030715 72 184 0.0 0.0 0.00 0.00 0.00 92 1020.2
20260505030211 72 133 0.0 0.0 0.00 0.00 0.00 92 1020.4
20260505025707 72 188 0.0 0.0 0.00 0.00 0.00 92 1020.2
20260505025206 72 154 0.0 0.0 0.00 0.00 0.00 92 1019.9
20260505024703 72 181 0.0 0.0 0.00 0.00 0.00 92 1020.3
20260505024200 72 166 0.0 0.0 0.00 0.00 0.00 92 1020.1
20260505023657 72 141 0.0 0.0 0.00 0.00 0.00 91 1019.9
20260505023154 72 168 0.0 0.0 0.00 0.00 0.00 91 1020.0
20260505022652 73 173 0.0 0.0 0.00 0.00 0.00 91 1020.0
20260505022149 73 168 0.0 0.0 0.00 0.00 0.00 91 1019.9
20260505021645 73 144 0.0 0.0 0.00 0.00 0.00 91 1020.0
20260505021142 73 183 0.0 0.0 0.00 0.00 0.00 91 1019.9
20260505020637 73 158 0.0 0.0 0.00 0.00 0.00 91 1019.7
20260505020133 73 155 0.0 0.0 0.00 0.00 0.00 91 1019.9
20260505015631 73 141 0.0 0.0 0.00 0.00 0.00 91 1019.9
20260505015127 73 127 0.0 0.0 0.00 0.00 0.00 91 1019.6
20260505014624 73 146 0.0 0.0 0.00 0.00 0.00 91 1019.7
20260505014121 73 136 0.0 0.0 0.00 0.00 0.00 91 1019.6
20260505013619 73 161 0.0 0.0 0.00 0.00 0.00 91 1019.5
20260505013116 73 145 0.0 0.0 0.00 0.00 0.00 90 1019.7
20260505012614 73 147 0.0 0.0 0.00 0.00 0.00 90 1019.5
20260505012111 73 124 0.0 0.0 0.00 0.00 0.00 90 1019.6
20260505011606 74 160 0.0 0.0 0.00 0.00 0.00 89 1019.5
20260505011104 74 180 0.0 0.0 0.00 0.00 0.00 89 1019.4
20260505010604 74 155 0.0 0.0 0.00 0.00 0.00 89 1019.4
20260505005558 74 142 0.0 0.0 0.00 0.00 0.00 89 1019.5
20260505005055 74 201 0.0 0.0 0.00 0.00 0.00 88 1019.2
20260505004552 74 154 0.0 0.0 0.00 0.00 0.00 88 1019.2
20260505004049 74 163 0.0 0.0 0.00 0.00 0.00 88 1019.1
20260505003546 74 146 0.0 0.0 0.00 0.00 0.00 88 1019.1
20260505003043 74 177 0.0 0.0 0.00 0.00 0.00 87 1019.3
20260505002538 75 157 0.0 0.0 0.00 0.00 0.00 87 1019.0
20260505002037 75 156 0.0 0.0 0.00 0.00 0.00 87 1018.9
20260505001534 75 205 0.0 0.0 0.00 0.00 0.00 86 1018.8
20260505001031 76 153 0.0 0.0 0.00 0.00 0.00 86 1018.8
20260505000528 76 220 0.0 0.0 0.00 0.00 0.00 85 1018.8
20260505000026 76 202 0.0 0.0 0.00 0.00 0.00 83 1018.9
20260504235523 76 158 0.0 0.0 0.00 0.00 0.00 83 1018.7
20260504235019 77 218 0.0 0.0 0.00 0.00 0.00 84 1018.7
20260504234516 77 139 0.0 0.0 0.00 0.00 0.00 84 1018.6
20260504234013 77 177 0.0 0.0 0.00 0.00 0.00 83 1018.5
20260504233508 78 283 0.0 0.0 0.00 0.00 0.00 84 1018.6
20260504233006 78 249 0.0 0.0 0.00 0.00 0.00 84 1018.5
20260504232503 78 321 0.0 0.0 0.00 0.00 0.00 86 1018.6
20260504232000 79 216 0.0 0.0 0.00 0.00 0.00 86 1018.7
20260504231456 79 209 0.0 0.0 0.00 0.00 0.00 85 1018.7
20260504230952 79 249 0.0 0.0 0.00 0.00 0.00 85 1018.6
20260504230449 79 323 0.0 0.0 0.00 0.00 0.00 85 1018.5
20260504225948 79 223 0.0 0.0 0.00 0.00 0.00 84 1018.5
20260504225444 79 149 0.0 0.9 0.00 0.00 0.00 83 1018.2
20260504224942 80 178 0.0 0.0 0.00 0.00 0.00 82 1018.3
20260504224438 80 224 0.0 0.0 0.00 0.00 0.00 82 1018.0
20260504223936 80 334 0.0 0.0 0.00 0.00 0.00 82 1018.2
20260504223431 80 171 0.0 0.0 0.00 0.00 0.00 80 1018.2
20260504222927 80 123 0.0 0.0 0.00 0.00 0.00 79 1018.2
20260504222425 80 137 0.0 0.0 0.00 0.00 0.00 78 1018.0
20260504221923 80 181 0.0 0.0 0.00 0.00 0.00 77 1018.0
20260504221419 81 155 0.0 0.0 0.00 0.00 0.00 75 1017.9
20260504220916 81 132 0.0 0.0 0.00 0.00 0.00 73 1017.8
20260504220413 81 66 0.0 0.0 0.00 0.00 0.00 72 1017.7
20260504215910 82 154 0.0 0.0 0.00 0.00 0.00 72 1017.7
20260504215407 82 77 0.0 0.0 0.00 0.00 0.00 70 1017.5
20260504214903 82 96 0.0 0.0 0.00 0.00 0.00 70 1017.4
20260504214400 82 210 0.0 0.9 0.00 0.00 0.00 65 1017.3
20260504213856 82 138 0.0 0.0 0.00 0.00 0.00 70 1017.3
20260504213352 83 170 0.0 0.0 0.00 0.00 0.00 68 1017.3
20260504212850 83 13 0.0 0.0 0.00 0.00 0.00 65 1017.1
20260504212346 83 200 0.0 0.0 0.00 0.00 0.00 66 1017.3
20260504211844 83 121 0.0 0.0 0.00 0.00 0.00 65 1017.2
20260504211339 83 195 0.0 0.0 0.00 0.00 0.00 67 1017.2
20260504210837 85 188 0.0 0.9 0.00 0.00 0.00 66 1017.4
20260504210334 85 291 0.0 0.9 0.00 0.00 0.00 62 1017.4
20260504205831 85 52 0.0 1.7 0.00 0.00 0.00 62 1017.2
20260504205329 85 350 0.9 5.2 0.00 0.00 0.00 62 1017.4
20260504204827 85 178 0.0 1.7 0.00 0.00 0.00 64 1017.2
20260504204325 86 26 0.0 0.0 0.00 0.00 0.00 61 1017.0
20260504203824 86 144 0.0 3.5 0.00 0.00 0.00 58 1017.2
20260504203321 86 111 0.0 1.7 0.00 0.00 0.00 59 1017.2
20260504202816 86 251 0.9 2.6 0.00 0.00 0.00 58 1017.1
20260504202314 86 222 0.9 1.7 0.00 0.00 0.00 59 1017.3
20260504201810 86 244 2.6 3.5 0.00 0.00 0.00 58 1017.1
20260504201308 86 202 2.6 2.6 0.00 0.00 0.00 58 1017.1
20260504200805 86 21 0.0 2.6 0.00 0.00 0.00 59 1017.2
20260504200301 86 307 1.7 1.7 0.00 0.00 0.00 57 1017.2
20260504195757 86 269 1.7 2.6 0.00 0.00 0.00 58 1017.2
20260504195253 87 50 0.9 1.7 0.00 0.00 0.00 57 1017.1
20260504194750 87 313 1.7 1.7 0.00 0.00 0.00 57 1017.2
20260504194247 87 249 0.0 5.2 0.00 0.00 0.00 57 1017.2
20260504193743 87 342 0.0 1.7 0.00 0.00 0.00 57 1017.2
20260504193241 87 43 0.0 0.9 0.00 0.00 0.00 58 1017.1
20260504192739 86 260 0.0 0.9 0.00 0.00 0.00 56 1017.3
20260504192237 87 299 0.9 1.7 0.00 0.00 0.00 57 1017.3
20260504191735 88 291 0.9 2.6 0.00 0.00 0.00 54 1017.2
20260504191232 87 265 0.9 6.1 0.00 0.00 0.00 54 1017.5
20260504190727 88 249 0.9 3.5 0.00 0.00 0.00 53 1017.2
20260504190224 88 8 0.9 5.2 0.00 0.00 0.00 52 1017.3
20260504185720 88 259 3.5 5.2 0.00 0.00 0.00 51 1017.2
20260504185217 89 247 2.6 2.6 0.00 0.00 0.00 50 1017.5
20260504184713 91 214 0.0 0.9 0.00 0.00 0.00 51 1017.2
20260504184209 90 246 0.0 0.0 0.00 0.00 0.00 50 1017.2
20260504183705 90 212 0.9 0.9 0.00 0.00 0.00 52 1017.4
20260504183202 90 212 1.7 5.2 0.00 0.00 0.00 50 1017.7
20260504182700 90 121 0.0 1.7 0.00 0.00 0.00 49 1017.5
20260504182157 90 238 0.9 2.6 0.00 0.00 0.00 49 1017.7
20260504181655 90 208 0.0 0.9 0.00 0.00 0.00 49 1017.7
20260504181152 89 18 0.9 1.7 0.00 0.00 0.00 53 1017.7
20260504180651 90 92 0.0 0.9 0.00 0.00 0.00 50 1017.8
20260504180149 90 318 0.0 0.9 0.00 0.00 0.00 51 1017.6
20260504175646 89 281 1.7 5.2 0.00 0.00 0.00 47 1017.9
20260504175143 89 226 0.0 1.7 0.00 0.00 0.00 46 1018.0
20260504174641 90 150 0.0 2.6 0.00 0.00 0.00 44 1018.1
20260504174137 89 310 0.9 2.6 0.00 0.00 0.00 45 1018.0
20260504173635 89 256 0.0 1.7 0.00 0.00 0.00 51 1018.2
20260504173132 89 242 0.9 1.7 0.00 0.00 0.00 53 1018.2
20260504172628 88 239 0.0 2.6 0.00 0.00 0.00 63 1018.2
20260504172125 88 335 0.9 1.7 0.00 0.00 0.00 67 1018.3
20260504171621 87 78 0.0 0.0 0.00 0.00 0.00 72 1018.3
20260504171119 86 184 0.0 0.9 0.00 0.00 0.00 72 1018.5
20260504170615 86 125 0.9 1.7 0.00 0.00 0.00 72 1018.4
20260504170113 86 63 0.0 1.7 0.00 0.00 0.00 70 1018.4
20260504150958 87 35 1.7 1.7 0.00 0.00 0.00 58 1019.3
20260504150455 87 194 0.9 3.5 0.00 0.00 0.00 59 1019.3
20260504140921 85 335 0.0 2.6 0.00 0.00 0.00 66 1019.6
20260504140418 84 286 1.7 5.2 0.00 0.00 0.00 60 1019.5
20260504130343 79 245 2.6 5.2 0.00 0.00 0.00 72 1019.5
20260504120306 72 202 0.0 0.0 0.00 0.00 0.00 96 1019.4
20260504110230 67 165 0.0 0.0 0.00 0.00 0.00 96 1019.4
20260504100154 67 165 0.0 0.0 0.00 0.00 0.00 96 1019.1
20260504090116 67 165 0.0 0.0 0.00 0.00 0.00 96 1019.1
20260504081546 67 165 0.0 0.0 0.00 0.00 0.00 95 1018.3